{"data":{"norad_id":66837,"epoch":"2026-09-20T05:52:31.546848Z","epoch_age_seconds":106199,"freshness":"FRESH","line1":"1 66837U 25280S   26263.24480957  .00003377  00000+0  29062-3 0  9996","line2":"2 66837  70.0005 204.1017 0002999 268.0535  92.0281 14.98338568 45216","mean_motion":14.98338568,"eccentricity":0.0002999,"inclination_deg":70.0005,"raan_deg":204.1017,"arg_perigee_deg":268.0535,"mean_anomaly_deg":92.0281,"bstar":0.00029062,"rev_number":4521,"period_min":96.106449553797,"perigee_km":569.94504033552,"apogee_km":574.11375013938,"semimajor_km":6950.1663952375,"source":"CELESTRAK","updated_at":"2026-09-21T09:00:36.022816Z"}}